星链-4189 (STARLINK-4189 )

导读 | 豆包AI

STARLINK-4189是美国太空探索技术公司(SpaceX)星链(Starlink)星座的卫星,于2022年6月17日发射升空,作为星链互联网星座的组成部分,它旨在为全球用户提供低延迟、高速率的宽带互联网服务,尤其覆盖偏远地区与网络基础设施薄弱区域,依托低轨布局提升通信服务体验,支撑星链星座全球组网覆盖的建设目标。

基本信息
目录编号:
52853
目录名称:
STARLINK-4189
国际标识:
2022-062Z
轨道中心:
EARTH
卫星名称:
星链-4189
卫星全名:
星链-4189 (STARLINK-4189 )
卫星状态:
在轨 (已飞行1413 天)
发射日期:
2022-06-17 UTC
国别 :
美国 (US)
星等 :
--
轨道信息
数据来源 国际轨道数据 AOE轨道数据
星历时间 2026-04-30T19:49:41+0800
9小时前
查看轨道信息
2026-04-29T07:00:00+0800
1天前
查看轨道信息
半长轴 6917.9km 6917.838km
偏心率 0.0001412 0.0001977
轨道倾角 53.215° 53.209°
近地点辐角 89.306° 83.512°
升交点赤经 151.539° 158.430°
平近点角 270.810° 217.015°
近地点 538.786km 538.333km
远地点 540.74km 541.069km
周期 95.438分钟 95.437分钟
每日圈数 15.088338 15.088541
详细信息
固有亮度:
5
最大亮度:
2.5
卫星平台:
Starlink v1.5
覆盖范围:
全球
运营商:
太空探索技术公司
运营商所在国:
美国
制造商(研发单位):
太空探索技术公司
制造商所在国:
美国
使用方式:
暂无
卫星简介
星链(Starlink)计划是由太空探索技术公司(SpaceX)提出的一个巨型低轨卫星互联网星座项目,计划在2019年至2024年间在太空搭建由约1.2万颗卫星组成的“星链”网络,其中1584颗将部署在地球上空550千米处的近地轨道,并从2020年开始工作。该卫星仍在工作。
2D轨道图
3D轨道图
轨道高度分析图
轨道倾角分析图
轨道综合分析图
查看轨道综合分析图